• în România
  • Lista ţărilor
  • Pe 7 zile
  • Temperatura apei
  • Hartă satelitară
  • Meteo pe hartă
  • Widget-uri
  • user-avatar
    Intrare

    Meteo pe oră la Chapaevka

    Astăzi, 20 Iulie, Vineri

    Timp Temperatura Precipitaţii Vânt Presiune Umiditate
    00:00 +24°C° 0 mm 1 m/s 752 mmHg 69%
    01:00 +23°C° 0,1 mm 1 m/s 752 mmHg 71%
    02:00 +23°C° 0,1 mm 1 m/s 752 mmHg 73%
    03:00 +22°C° 0,1 mm 1 m/s 752 mmHg 75%
    04:00 +23°C° 0,1 mm 1 m/s 752 mmHg 74%
    05:00 +24°C° 0,1 mm 1 m/s 752 mmHg 74%
    06:00 +25°C° 0,1 mm 1 m/s 752 mmHg 73%
    07:00 +26°C° 0 mm 1 m/s 752 mmHg 68%
    08:00 +28°C° 0 mm 1 m/s 752 mmHg 62%
    09:00 +29°C° 0 mm 2 m/s 752 mmHg 59%
    10:00 +30°C° 0,2 mm 2 m/s 752 mmHg 57%
    11:00 +31°C° 0,2 mm 2 m/s 752 mmHg 54%
    12:00 +33°C° 0,2 mm 3 m/s 752 mmHg 52%
    13:00 +33°C° 0,1 mm 3 m/s 752 mmHg 52%
    14:00 +33°C° 0,1 mm 3 m/s 752 mmHg 52%
    15:00 +33°C° 0,1 mm 3 m/s 752 mmHg 51%
    16:00 +31°C° 0,7 mm 2 m/s 752 mmHg 59%
    17:00 +29°C° 0,7 mm 2 m/s 752 mmHg 66%
    18:00 +28°C° 0,7 mm 2 m/s 752 mmHg 73%
    19:00 +27°C° 0,6 mm 2 m/s 752 mmHg 77%
    20:00 +25°C° 0,6 mm 3 m/s 752 mmHg 81%
    21:00 +24°C° 0,6 mm 3 m/s 752 mmHg 85%
    22:00 +24°C° 0,5 mm 3 m/s 752 mmHg 86%
    23:00 +24°C° 0,5 mm 2 m/s 752 mmHg 88%

    Mâine, 21 Iulie, Sâmbătă

    Timp Temperatura Precipitaţii Vânt Presiune Umiditate
    00:00 +23°C° 0,5 mm 2 m/s 752 mmHg 89%
    01:00 +23°C° 0,4 mm 2 m/s 752 mmHg 89%
    02:00 +23°C° 0,4 mm 2 m/s 752 mmHg 89%
    03:00 +21°C° 0,4 mm 2 m/s 752 mmHg 89%
    04:00 +23°C° 0 mm 2 m/s 752 mmHg 88%
    05:00 +23°C° 0 mm 2 m/s 752 mmHg 87%
    06:00 +24°C° 0 mm 2 m/s 752 mmHg 86%
    07:00 +25°C° 0,5 mm 2 m/s 752 mmHg 80%
    08:00 +26°C° 0,5 mm 3 m/s 752 mmHg 75%
    09:00 +27°C° 0,5 mm 3 m/s 752 mmHg 70%
    10:00 +27°C° 0,7 mm 4 m/s 752 mmHg 71%
    11:00 +26°C° 0,7 mm 4 m/s 752 mmHg 72%
    12:00 +26°C° 0,7 mm 4 m/s 752 mmHg 73%
    13:00 +26°C° 0,6 mm 4 m/s 752 mmHg 77%
    14:00 +25°C° 0,6 mm 4 m/s 752 mmHg 80%
    15:00 +23°C° 0,6 mm 4 m/s 752 mmHg 83%
    16:00 +23°C° 0,4 mm 4 m/s 752 mmHg 84%
    17:00 +22°C° 0,4 mm 4 m/s 752 mmHg 85%
    18:00 +22°C° 0,4 mm 5 m/s 752 mmHg 87%
    19:00 +22°C° 0,2 mm 5 m/s 752 mmHg 88%
    20:00 +21°C° 0,2 mm 5 m/s 752 mmHg 89%
    21:00 +21°C° 0,2 mm 6 m/s 752 mmHg 91%
    22:00 +20°C° 0,5 mm 6 m/s 752 mmHg 90%
    23:00 +20°C° 0,5 mm 6 m/s 752 mmHg 90%

    Poimâine, 22 Iulie, Duminică

    Timp Temperatura Precipitaţii Vânt Presiune Umiditate
    00:00 +19°C° 0,5 mm 6 m/s 753 mmHg 90%
    01:00 +19°C° 0 mm 6 m/s 753 mmHg 90%
    02:00 +17°C° 0 mm 6 m/s 752 mmHg 89%
    03:00 +17°C° 0 mm 6 m/s 752 mmHg 89%
    04:00 +17°C° 0 mm 6 m/s 752 mmHg 88%
    05:00 +19°C° 0 mm 6 m/s 753 mmHg 86%
    06:00 +18°C° 0 mm 7 m/s 753 mmHg 85%
    07:00 +20°C° 0 mm 7 m/s 753 mmHg 81%
    08:00 +21°C° 0 mm 7 m/s 753 mmHg 78%
    09:00 +22°C° 0 mm 7 m/s 753 mmHg 74%
    10:00 +22°C° 0 mm 7 m/s 753 mmHg 73%
    11:00 +23°C° 0 mm 7 m/s 754 mmHg 72%
    12:00 +23°C° 0 mm 7 m/s 754 mmHg 71%
    13:00 +23°C° 0 mm 7 m/s 754 mmHg 70%
    14:00 +24°C° 0 mm 6 m/s 754 mmHg 69%
    15:00 +24°C° 0 mm 6 m/s 754 mmHg 68%
    16:00 +24°C° 0 mm 6 m/s 754 mmHg 69%
    17:00 +25°C° 0 mm 5 m/s 754 mmHg 70%
    18:00 +23°C° 0 mm 5 m/s 754 mmHg 70%
    19:00 +23°C° 0 mm 5 m/s 754 mmHg 70%
    20:00 +22°C° 0 mm 6 m/s 755 mmHg 69%
    21:00 +21°C° 0 mm 6 m/s 755 mmHg 68%
    22:00 +21°C° 0 mm 6 m/s 755 mmHg 67%
    23:00 +20°C° 0 mm 6 m/s 755 mmHg 67%

    23 Iulie, Luni

    Timp Temperatura Precipitaţii Vânt Presiune Umiditate
    00:00 +19°C° 0 mm 6 m/s 756 mmHg 66%
    01:00 +19°C° 0 mm 6 m/s 756 mmHg 65%
    02:00 +17°C° 0 mm 6 m/s 756 mmHg 65%
    03:00 +17°C° 0 mm 6 m/s 756 mmHg 64%
    04:00 +16°C° 0 mm 6 m/s 757 mmHg 66%
    05:00 +16°C° 0 mm 6 m/s 757 mmHg 67%
    06:00 +16°C° 0 mm 6 m/s 757 mmHg 69%
    07:00 +17°C° 0 mm 6 m/s 758 mmHg 66%
    08:00 +19°C° 0 mm 6 m/s 758 mmHg 64%
    09:00 +20°C° 0 mm 6 m/s 758 mmHg 62%
    10:00 +21°C° 0 mm 7 m/s 758 mmHg 59%
    11:00 +23°C° 0 mm 7 m/s 758 mmHg 57%
    12:00 +24°C° 0 mm 7 m/s 758 mmHg 54%
    13:00 +24°C° 0 mm 7 m/s 758 mmHg 54%
    14:00 +24°C° 0 mm 6 m/s 758 mmHg 53%
    15:00 +24°C° 0 mm 6 m/s 758 mmHg 53%
    16:00 +23°C° 0 mm 5 m/s 758 mmHg 56%
    17:00 +23°C° 0 mm 5 m/s 758 mmHg 60%
    18:00 +22°C° 0 mm 4 m/s 758 mmHg 63%
    19:00 +21°C° 0 mm 4 m/s 758 mmHg 63%
    20:00 +20°C° 0 mm 4 m/s 759 mmHg 63%
    21:00 +20°C° 0 mm 5 m/s 759 mmHg 64%
    22:00 +19°C° 0 mm 5 m/s 759 mmHg 63%
    23:00 +19°C° 0 mm 5 m/s 759 mmHg 63%

    24 Iulie, Marţi

    Timp Temperatura Precipitaţii Vânt Presiune Umiditate
    00:00 +19°C° 0 mm 5 m/s 759 mmHg 63%
    01:00 +19°C° 0 mm 5 m/s 759 mmHg 62%
    02:00 +18°C° 0 mm 4 m/s 759 mmHg 62%
    03:00 +18°C° 0 mm 4 m/s 759 mmHg 62%
    04:00 +18°C° 0 mm 4 m/s 759 mmHg 63%
    05:00 +17°C° 0 mm 5 m/s 760 mmHg 65%
    06:00 +17°C° 0 mm 5 m/s 760 mmHg 66%
    07:00 +20°C° 0 mm 5 m/s 760 mmHg 62%
    08:00 +21°C° 0 mm 5 m/s 760 mmHg 58%
    09:00 +23°C° 0 mm 5 m/s 760 mmHg 55%
    10:00 +25°C° 0 mm 5 m/s 760 mmHg 51%
    11:00 +26°C° 0 mm 5 m/s 760 mmHg 47%
    12:00 +27°C° 0 mm 5 m/s 760 mmHg 44%
    13:00 +28°C° 0 mm 5 m/s 760 mmHg 44%
    14:00 +28°C° 0 mm 5 m/s 760 mmHg 44%
    15:00 +28°C° 0 mm 5 m/s 760 mmHg 44%
    16:00 +27°C° 0 mm 4 m/s 760 mmHg 49%
    17:00 +26°C° 0 mm 4 m/s 760 mmHg 55%
    18:00 +25°C° 0 mm 3 m/s 760 mmHg 60%
    19:00 +24°C° 0 mm 3 m/s 760 mmHg 63%
    20:00 +21°C° 0 mm 3 m/s 760 mmHg 67%
    21:00 +19°C° 0 mm 3 m/s 760 mmHg 70%
    22:00 +19°C° 0 mm 3 m/s 761 mmHg 72%
    23:00 +18°C° 0 mm 3 m/s 761 mmHg 74%

    25 Iulie, Miercuri

    Timp Temperatura Precipitaţii Vânt Presiune Umiditate
    00:00 +18°C° 0 mm 3 m/s 761 mmHg 77%
    01:00 +17°C° 0 mm 3 m/s 761 mmHg 79%
    02:00 +17°C° 0 mm 3 m/s 761 mmHg 81%
    03:00 +17°C° 0 mm 3 m/s 761 mmHg 83%
    04:00 +17°C° 0 mm 3 m/s 761 mmHg 81%
    05:00 +18°C° 0 mm 3 m/s 761 mmHg 80%
    06:00 +19°C° 0 mm 4 m/s 762 mmHg 79%
    07:00 +21°C° 0 mm 4 m/s 762 mmHg 74%
    08:00 +23°C° 0 mm 4 m/s 762 mmHg 69%
    09:00 +26°C° 0 mm 4 m/s 762 mmHg 64%
    10:00 +27°C° 0 mm 4 m/s 762 mmHg 57%
    11:00 +29°C° 0 mm 4 m/s 762 mmHg 51%
    12:00 +30°C° 0 mm 4 m/s 761 mmHg 45%
    13:00 +30°C° 0 mm 4 m/s 761 mmHg 45%
    14:00 +30°C° 0 mm 3 m/s 761 mmHg 44%
    15:00 +31°C° 0 mm 3 m/s 761 mmHg 44%
    16:00 +30°C° 0 mm 3 m/s 761 mmHg 50%
    17:00 +29°C° 0 mm 3 m/s 761 mmHg 55%
    18:00 +28°C° 0 mm 3 m/s 761 mmHg 61%
    19:00 +27°C° 0 mm 3 m/s 761 mmHg 64%
    20:00 +25°C° 0 mm 3 m/s 761 mmHg 68%
    21:00 +24°C° 0 mm 3 m/s 761 mmHg 71%
    22:00 +22°C° 0 mm 3 m/s 761 mmHg 74%
    23:00 +21°C° 0 mm 3 m/s 761 mmHg 76%
    Arată mai mult